Regional Weather Roundup
Issued by NWS Goodland, KS

Home | Current Version | Previous Version | Text Only | Print | Product List | Glossary Off
Versions: 1 2 3 4 5 6 7 8 9 10 11 12 13 14 15 16 17 18 19 20 21 22 23 24 25 26 27 28 29 30 31 32 33 34 35 36 37 38 39 40 41 42 43 44 45 46 47 48 49 50

000
ASUS43 KGLD 261159
RWRGLD

GOODLAND FORECAST AREA HOURLY WEATHER ROUNDUP
NATIONAL WEATHER SERVICE GOODLAND KS
500 AM MST MON JAN 26 2015

...OFFICIAL OBSERVATIONS...

CITY           SKY/WX    TMP DP  RH WIND       PRES   REMARKS
GOODLAND KS    CLEAR     40  30  67 NW18      30.11R
HILL CITY KS   CLEAR     42  31  64 W10       30.03R
IMPERIAL NEB   CLEAR     42  30  62 NW14      30.07R
MCCOOK NEB     PTCLDY    38  30  73 W13       30.03S
AKRON CO       MOCLDY    36  28  73 W14       30.16R
BURLINGTON CO  CLEAR     35  28  75 W10       30.15R
LIMON CO       CLEAR     35  25  66 W14       30.21S
$$

...UNOFFICIAL OBSERVATIONS...

CITY           SKY/WX    TMP DP  RH WIND       PRES   REMARKS
COLBY KS       CLEAR     39  34  81 W13       30.08S
GOVE KS          N/A     38  32  79 MISG        N/A
NORTON KS      CLEAR     37  28  70 W13       30.01R
SHARON SPRINGS   N/A     38  30  72 W9          N/A
KIT CARSON CO    N/A     29  24  81 MISG        N/A
YUMA CO          N/A     39  29  67 W14         N/A
$$


USA.gov is the U.S. government's official web portal to all federal, state and local government web resources and services.